Location: La Sioule Rivi�re
(46.3664°N, 3.3197°E)
Time: 13:06:46
(UTC+00:00)

USA 307 - Pass Details

Date: 29 October 2020
Orbit: 569 x 579 km, 54.0° (Epoch: 23 November)

Event Time Altitude Azimuth Distance (km) Brightness Sun altitude
Rises 18:39:21 0° 301° (WNW) 2,788 7.4 -21.8°
Reaches altitude 10° 18:41:38 10° 298° (WNW) 1,885 6.5 -22.2°
Maximum altitude 18:45:51 60° 219° (SW) 660 3.3 -22.9°
Enters shadow 18:46:30 52° 179° (S) 712 3.2 -23.0°
